Weather in Aridaia

Greece     40°58′21″N   22°03′29″E
temp.,
°C
wind,
m/s
gust,
m/s
humid.,
%
clouds,
%
prec.,
mm/h
press.,
hPa
HPBL,
m
23 october, sat
sat2300:00+12nw117568 0.0 102010
03:00+12nw1172100 0.0 102010
06:00+11nw2271100 0.0 102012
09:00+12nw116990 0.0 102013
12:00+17sse215533 0.0 1021620
15:00+18sse225479 0.0 1020790
18:00+15se227242 0.0 102050
21:00+13nnw117678 0.0 102212
24 october, sun
sun2400:00+14n227370 0.0 102352
03:00+11nnw578281 0.0 1024152
06:00+10nnw6874100 0.0 1024225
09:00+9nnw7972100 0.0 1026252
12:00+10nnw6761100 0.0 1027356
15:00+11n4458100 0.0 1027400
18:00+10n226197 0.0 1027127
21:00+9se237198 0.0 1029216
25 october, mon
mon2500:00+8ese2497100 0.4 1030421
03:00+7sse2598100 2.1 1030470
06:00+6ese2398100 0.9 1030265
09:00+6se1397100 1.4 1031206
12:00+6se2390100 0.2 1031373
15:00+7se1383100 0.2 1029562
18:00+6ese1281100 0.0 1028179
21:00+4nnw118048 0.0 102922
26 october, tue
tue2600:00+4n11791 0.0 102921
03:00+3n127929 0.0 102818
06:00+3nnw128392 0.0 102619
09:00+4n1180100 0.0 102648
12:00+8se22664 0.0 1025565
15:00+9se215895 0.0 1022715
18:00+8se117078 0.0 102264
21:00+6ne117650 0.0 102323
27 october, wed
wed2700:00+5nnw228150 0.0 102421
03:00+5nnw217937 0.0 102314
06:00+6n1168100 0.0 102310
09:00+6n1166100 0.0 102321
12:00+10se215769 0.0 1023575
15:00+12se225698 0.0 1021794
18:00+10sse127097 0.0 102258
21:00+7n326819 0.0 102430